"Pseudo-MPEC" for P22bZYt

Created 2025 Nov 9 9:35:07 UT using Find_Orb

Click here for an explanation of pseudo-MPECs

 
 Astrometry: 
     P22bZYt  C2025 07 17.32037016 47 41.201-07 36 36.97   ~82I5 22.28GVNEOCPF52
     P22bZYt  C2025 07 17.34712116 47 37.443-07 36 56.02   ~82I5 22.12GVNEOCPF52
     P22bZYt  C2025 07 17.36049116 47 35.624-07 37 05.29   ~82I5 22.06GVNEOCPF52
     P22bZYt* C2025 07 26.29268516 28 49.001-09 18 46.68   ~7QAo 21.65wXNEOCPF52
     P22bZYt  C2025 07 26.31447916 28 46.458-09 19 01.00   ~7QAo 21.81wXNEOCPF52
     P22bZYt  C2025 07 26.32530816 28 45.168-09 19 08.25   ~7QAo 22.42wXNEOCPF52
     P22bZYt KC2025 07 27.16415616 27 10.419-09 28 19.09   ~7R4o 22.1 GWNEOCPH01
     P22bZYt KC2025 07 27.16920216 27 09.858-09 28 22.48   ~7R4o 22.3 GWNEOCPH01
     P22bZYt KC2025 07 27.18273216 27 08.327-09 28 31.27   ~7R4o 22.3 GWNEOCPH01
     P22bZYt KC2025 07 27.18693516 27 07.847-09 28 34.10   ~7R4o 21.9 GWNEOCPH01
     P22bZYt 1C2025 08 01.26903616 18 14.017-10 22 38.96   ~81MZ 22.57GVNEOCPT12
     P22bZYt 1C2025 08 01.27290616 18 13.622-10 22 41.39   ~81MZ 22.66GVNEOCPT12
     P22bZYt 1C2025 08 15.37906 15 59 12.33 -12 40 02.9    ~8OEZ       VNEOCPQ62
     P22bZYt 1C2025 08 15.39272 15 59 11.44 -12 40 10.0    ~8OEZ 22.4 GVNEOCPQ62
     P22bZYt 3C2025 08 16.25235215 58 16.776-12 48 02.06   ~8GBK 22.87GVNEOCPT14
     P22bZYt 3C2025 08 16.25390015 58 16.680-12 48 02.89   ~8GBK 22.96GVNEOCPT14
     P22bZYt 3C2025 08 16.25545015 58 16.582-12 48 03.76   ~8GBK 23.07GVNEOCPT14
     P22bZYt 3C2025 08 22.28984815 52 36.001-13 41 23.20   ~8MCK 22.66GVNEOCPT14
     P22bZYt 3C2025 08 25.30307015 50 12.604-14 07 04.13   ~8PCZ 23.11GVNEOCPT14
     P22bZYt 3C2025 08 25.30467915 50 12.517-14 07 04.70   ~8PCZ 23.67GVNEOCPT14
     P22bZYt 3C2025 08 25.30623115 50 12.465-14 07 05.58   ~8PCZ 23.14GVNEOCPT14

Station data:
(F52) Pan-STARRS 2, Haleakala  (N20.707382 W156.255910)  US/Hawaii.
   Observers J. Herman, T. Lowe, P. Minguez, A. Schultz, I. Smith. Measurers
   K. Chambers, T. de Boer, J. Fairlamb, H. Gao, M. Huber, C.-C. Lin, E.
   Magnier, Y. Ramanjooloo, R. Wainscoat, R. Weryk. 1.8-m Ritchey-Chrétien +
   CCD.
(H01) Magdalena Ridge Observatory, Socorro  (N33.984833 W107.189333)  US/New
   Mexico.  Observers W. H. Ryan, E. V. Ryan. Measurer W. H. Ryan. 2.4-m
   f/8.9 reflector + CCD.
(Q62) iTelescope Observatory, Siding Spring  (S31.273286 E149.064420)
   Australia/NSW.  Observer H. Sato. 0.30-m f/9 reflector + CCD.
(T12) Mauna Kea-UH/Tholen NEO Follow-Up (2.24-m)  (N19.822991 W155.469434)
   US/Hawaii.  Observer R. Weryk. 2.24-m f/10.1 University of Hawaii
   reflector.
(T14) Mauna Kea-UH/Tholen NEO Follow-Up (CFHT)  (N19.825252 W155.468876)
   US/Hawaii.  Observer R. Weryk. 3.6-m Canada-France-Hawaii Telescope.

Orbital elements:  P22bZYt
   Perihelion 2025 Jun 10.170102 +/- 0.0317 TT =  4:04:56.8 (JD 2460836.670102)
Epoch 2025 Aug 25.0 TT = JDT 2460912.5                           AutoNEOCP
M   0.028025797 +/- 0.0012          (J2000 ecliptic)
n   0.000369587 +/- 1.62e-5         Peri.  151.965389 +/- 0.009
a 192.3052077 +/- 5.63              Node    68.646746 +/- 0.0012
e   0.98345836 +/- 0.000484         Incl.  144.246904 +/- 0.0011
P2666.77619                H 17.12  G  0.15   U  5.3
q 3.181042428 +/- 6.93e-5    Q 381.4293731 +/- 11.3
From 21 observations 2025 July 17-Aug. 25; mean residual 0".18
Residuals in arcseconds: 
250717 F52  .03+  .07+    250727 H01  .03-  .01-    250816 T14  .03-  .01+    
250717 F52  .42-  .11-    250727 H01  .05-  .03+    250816 T14  .01+  .02+    
250717 F52  .21+  .05+    250727 H01  .13-  .05-    250816 T14  .03+  .01-    
250726 F52  .60+  .10+    250801 T12  .05+  .02-    250822 T14  .11-  .09-    
250726 F52  .24+  .12+    250801 T12  .09-  .04-    250825 T14  .09+  .09-    
250726 F52  .35-  .01-    250815 Q62  .32-  .11+    250825 T14  .11-  .15+    
250727 H01  .17-  .09+    250815 Q62  .24-  .48+    250825 T14  .16+  .05+    

Ephemerides (geocentric):
Date (UTC) HH   RA             Dec           delta  r     elong  mag " sig PA
---- --------  ------------   ------------  ------ ------ -----  --- --------
2025 11 09 10  15 46 08.951   -23 07 34.34  4.4515 3.4934  13.0 23.4 2.19 120
2025 11 09 11  15 46 09.712   -23 07 50.59  4.4519 3.4935  12.9 23.4 2.19 120
2025 11 09 12  15 46 10.474   -23 08 06.85  4.4522 3.4937  12.9 23.4 2.20 120
2025 11 09 13  15 46 11.236   -23 08 23.10  4.4525 3.4939  12.9 23.4 2.20 120
2025 11 09 14  15 46 11.999   -23 08 39.36  4.4529 3.4940  12.8 23.4 2.20 120
2025 11 09 15  15 46 12.762   -23 08 55.61  4.4532 3.4942  12.8 23.4 2.20 120
2025 11 09 16  15 46 13.525   -23 09 11.87  4.4535 3.4943  12.8 23.4 2.20 120
2025 11 09 17  15 46 14.288   -23 09 28.12  4.4538 3.4945  12.7 23.4 2.21 120
2025 11 09 18  15 46 15.051   -23 09 44.38  4.4542 3.4947  12.7 23.4 2.21 120
2025 11 09 19  15 46 15.815   -23 10 00.63  4.4545 3.4948  12.6 23.4 2.21 120
2025 11 09 20  15 46 16.579   -23 10 16.89  4.4548 3.4950  12.6 23.4 2.21 120
2025 11 09 21  15 46 17.344   -23 10 33.14  4.4551 3.4951  12.6 23.4 2.21 120
2025 11 09 22  15 46 18.109   -23 10 49.39  4.4555 3.4953  12.5 23.4 2.22 120
2025 11 09 23  15 46 18.874   -23 11 05.65  4.4558 3.4955  12.5 23.4 2.22 120
2025 11 10 00  15 46 19.639   -23 11 21.90  4.4561 3.4956  12.5 23.4 2.22 120
2025 11 10 01  15 46 20.404   -23 11 38.15  4.4564 3.4958  12.4 23.4 2.22 120
2025 11 10 02  15 46 21.170   -23 11 54.41  4.4568 3.4959  12.4 23.4 2.22 120
2025 11 10 03  15 46 21.936   -23 12 10.66  4.4571 3.4961  12.4 23.4 2.22 120
2025 11 10 04  15 46 22.703   -23 12 26.91  4.4574 3.4963  12.3 23.4 2.23 120
2025 11 10 05  15 46 23.469   -23 12 43.17  4.4577 3.4964  12.3 23.4 2.23 120
2025 11 10 06  15 46 24.236   -23 12 59.42  4.4580 3.4966  12.2 23.4 2.23 120
2025 11 10 07  15 46 25.003   -23 13 15.67  4.4584 3.4968  12.2 23.4 2.23 120
2025 11 10 08  15 46 25.771   -23 13 31.92  4.4587 3.4969  12.2 23.4 2.23 120
2025 11 10 09  15 46 26.539   -23 13 48.17  4.4590 3.4971  12.1 23.4 2.24 120
2025 11 10 10  15 46 27.307   -23 14 04.42  4.4593 3.4972  12.1 23.4 2.24 120
2025 11 10 11  15 46 28.075   -23 14 20.68  4.4596 3.4974  12.1 23.4 2.24 120
2025 11 10 12  15 46 28.843   -23 14 36.93  4.4599 3.4976  12.0 23.4 2.24 120
2025 11 10 13  15 46 29.612   -23 14 53.18  4.4603 3.4977  12.0 23.4 2.24 120
2025 11 10 14  15 46 30.381   -23 15 09.43  4.4606 3.4979  12.0 23.4 2.25 120
2025 11 10 15  15 46 31.151   -23 15 25.68  4.4609 3.4980  11.9 23.4 2.25 120
2025 11 10 16  15 46 31.920   -23 15 41.93  4.4612 3.4982  11.9 23.4 2.25 120
2025 11 10 17  15 46 32.690   -23 15 58.18  4.4615 3.4984  11.9 23.4 2.25 120
2025 11 10 18  15 46 33.460   -23 16 14.43  4.4618 3.4985  11.8 23.4 2.25 120
2025 11 10 19  15 46 34.231   -23 16 30.68  4.4621 3.4987  11.8 23.4 2.25 120
2025 11 10 20  15 46 35.001   -23 16 46.93  4.4625 3.4989  11.8 23.4 2.26 120
2025 11 10 21  15 46 35.772   -23 17 03.18  4.4628 3.4990  11.7 23.4 2.26 120
2025 11 10 22  15 46 36.543   -23 17 19.43  4.4631 3.4992  11.7 23.4 2.26 120
2025 11 10 23  15 46 37.315   -23 17 35.68  4.4634 3.4993  11.6 23.4 2.26 120
2025 11 11 00  15 46 38.086   -23 17 51.93  4.4637 3.4995  11.6 23.4 2.26 120
2025 11 11 01  15 46 38.858   -23 18 08.17  4.4640 3.4997  11.6 23.4 2.27 120
2025 11 11 02  15 46 39.631   -23 18 24.42  4.4643 3.4998  11.5 23.4 2.27 120
2025 11 11 03  15 46 40.403   -23 18 40.67  4.4646 3.5000  11.5 23.4 2.27 120
2025 11 11 04  15 46 41.176   -23 18 56.92  4.4649 3.5001  11.5 23.4 2.27 120
2025 11 11 05  15 46 41.949   -23 19 13.17  4.4652 3.5003  11.4 23.4 2.27 120
2025 11 11 06  15 46 42.722   -23 19 29.42  4.4656 3.5005  11.4 23.4 2.28 120
2025 11 11 07  15 46 43.495   -23 19 45.66  4.4659 3.5006  11.4 23.4 2.28 120
2025 11 11 08  15 46 44.269   -23 20 01.91  4.4662 3.5008  11.3 23.4 2.28 120
2025 11 11 09  15 46 45.043   -23 20 18.16  4.4665 3.5010  11.3 23.4 2.28 120